Flight Track Log - Related Links

Times and Time Zones

All times are in EDT time to prevent confusion due to time zone crossing. See the SWA3584 flight status page for this flight to view local times or setup timezone preferences in your user account.


Time Position Orientation Groundspeed Altitude Reporting Facility
EDT Latitude Longitude Course Direction KTS MPH feet Rate Location/Type
Sun 07:10:33 PM 33.4333 -112.0167 271° West 140 161 2,000  Level Phoenix TRACON
Sun 07:12:12 PM 33.4342 -112.1219 271° West 205 236 4,700 2,268 Climbing Los Angeles Center
Sun 07:13:17 PM 33.4606 -112.2014 292° West 266 306 8,200 3,260 Climbing Albuquerque Center
Sun 07:14:19 PM 33.5400 -112.1917 North 298 343 11,600 3,317 Climbing Albuquerque Center
Sun 07:15:20 PM 33.6186 -112.2386 334° Northwest 340 391 15,000 3,366 Climbing Albuquerque Center
Sun 07:16:22 PM 33.6869 -112.3269 313° West 357 411 18,500 3,512 Climbing Albuquerque Center
Sun 07:17:23 PM 33.7903 -112.4256 322° Northwest 396 456 22,200 3,393 Climbing Albuquerque Center
Sun 07:18:24 PM 33.8925 -112.4850 334° Northwest 405 466 25,400 2,000 Climbing Albuquerque Center
Sun 07:19:26 PM 34.0006 -112.5431 336° Northwest 432 497 26,300 1,268 Climbing Albuquerque Center
Sun 07:20:27 PM 34.1178 -112.6119 334° Northwest 461 531 28,000 836 Climbing Albuquerque Center
Sun 07:21:28 PM 34.2386 -112.6825 334° Northwest 475 547 28,000  Level Albuquerque Center
Sun 07:22:30 PM 34.3597 -112.7536 334° Northwest 481 554 28,000  Level Albuquerque Center
Sun 07:23:31 PM 34.4725 -112.8417 327° Northwest 480 552 28,000  Level Albuquerque Center
Sun 07:24:32 PM 34.5758 -112.9439 321° Northwest 481 554 28,000  Level Albuquerque Center
Sun 07:25:34 PM 34.6803 -113.0456 321° Northwest 481 554 28,000  Level Albuquerque Center
Sun 07:26:35 PM 34.7803 -113.1428 321° Northwest 474 545 28,000  Level Albuquerque Center
Sun 07:27:36 PM 34.8736 -113.2322 322° Northwest 451 519 28,000  Level Albuquerque Center
Sun 07:28:08 PM 34.9289 -113.2844 322° Northwest 433 498 28,000  Level Los Angeles Center
Sun 07:29:11 PM 35.0097 -113.3908 313° West 435 501 28,000  Level Los Angeles Center
Sun 07:30:13 PM 35.0683 -113.5150 300° West 426 490 28,000 -919 Level Los Angeles Center
Sun 07:31:15 PM 35.1639 -113.6389 313° West 421 484 26,100 -1,403 Descending Los Angeles Center
Sun 07:32:17 PM 35.2419 -113.7394 314° West 412 474 25,100 -1,016 Descending Los Angeles Center
Sun 07:33:19 PM 35.3203 -113.8397 314° West 410 472 24,000 -1,597 Descending Los Angeles Center
Sun 07:34:21 PM 35.4014 -113.9414 314° West 396 456 21,800 -2,081 Descending Los Angeles Center
Sun 07:35:23 PM 35.4672 -114.0272 313° West 383 441 19,700 -2,226 Descending Los Angeles Center
Sun 07:36:25 PM 35.5522 -114.1364 314° West 373 429 17,200 -2,226 Descending Los Angeles Center
Sun 07:37:27 PM 35.6194 -114.2242 313° West 361 415 15,100 -2,032 Descending Los Angeles Center
Sun 07:38:29 PM 35.6906 -114.3158 314° West 346 398 13,000 -1,500 Descending Los Angeles Center
Sun 07:39:31 PM 35.7431 -114.4022 307° West 327 376 12,000 -480 Descending Los Angeles Center
Sun 07:40:34 PM 35.7867 -114.4869 302° West 304 350 12,000 -288 Level Los Angeles Center
Sun 07:41:36 PM 35.8678 -114.5164 344° North 306 352 11,400 -843 Descending Los Angeles Center
Sun 07:42:35 PM 35.9594 -114.5019 North 303 349 10,300 -968 Descending Los Angeles Center
Sun 07:43:40 PM 36.0347 -114.4778 15° North 306 352 9,400 -983 Descending Los Angeles Center
Sun 07:44:31 PM 36.1153 -114.4731 North 296 341 8,400 -1,068 Descending Los Angeles Center
Sun 07:45:38 PM 36.1644 -114.5578 306° West 285 328 7,300 -656 Descending Los Angeles Center
Sun 07:46:39 PM 36.2061 -114.6478 300° West 283 326 7,000 -141 Descending Los Angeles Center
Sun 07:47:46 PM 36.1825 -114.7464 254° West 283 326 7,000 -248 Level Los Angeles Center
Sun 07:48:40 PM 36.1628 -114.8331 254° West 283 326 6,500 -730 Descending Los Angeles Center
Sun 07:49:41 PM 36.1422 -114.9172 253° West 255 293 5,600 -836 Descending Los Angeles Center
Sun 07:50:42 PM 36.1342 -114.9892 262° West 211 243 4,800 -836 Descending Los Angeles Center
Sun 07:51:43 PM 36.1383 -115.0572 274° West 179 206 3,900 -701 Descending Los Angeles Center
Sun 07:52:59 PM 36.1322 -115.1189 263° West 175 201 3,200 -730 Descending Los Angeles Center
Sun 07:53:38 PM 36.1122 -115.1456 227° Southwest 148 170 2,500 -1,077 Descending Los Angeles Center
Sun 07:56:00 PM 36.0801 -115.1523 270° West  Level Estimated

Login

Don't have an account? Register now (free) for customized features, flight alerts, and more!